Weather History for Grand Rapids, MI

Change the Weather History Date:

Tuesday, August 27, 2013

  Actual Average Record
Temperature  
Mean Temperature 83 °F 69 °F  
Max Temperature 92 °F 79 °F 95 °F (1953)
Min Temperature 73 °F 59 °F 42 °F (1915)
Degree Days  
Heating Degree Days 0 1  
Month to date heating degree days 15 5  
Since 1 June heating degree days 66 56  
Since 1 July heating degree days 26 11  
Cooling Degree Days 18 5  
Month to date cooling degree days 136 174  
Year to date cooling degree days 625 605  
Since 1 June cooling degree days 543 558  
Growing Degree Days 32 (Base 50)    
Moisture  
Dew Point 71 °F    
Average Humidity 68    
Maximum Humidity 87    
Minimum Humidity 49    
Precipitation  
Precipitation 0.43 in 0.12 in 2.08 in (1921)
Month to date precipitation 1.43 3.10  
Year to date precipitation 31.85 24.23  
Snow  
Snow 0.00 in 0.00 in 0.00 in ()
Month to date snowfall 0.0 0.0  
Since 1 June snowfall 0.0 0.0  
Since 1 July snowfall 0.0 0.0  
Snow Depth 0.00 in    
Sea Level Pressure  
Sea Level Pressure 29.91 in    
Wind  
Wind Speed 10 mph (WSW)    
Max Wind Speed 22 mph    
Max Gust Speed 28 mph    
Visibility 8 miles    
Events Rain , Thunderstorm    
T = Trace of Precipitation, MM = Missing Value Source: NWS Daily Summary

Daily Weather History Graph

Daily Weather History Graph

Search for Another Location

Airport:

Trip Planner

Search our weather history database for the weather conditions in past years. The results will help you decide how hot, cold, wet, or windy it might be!

Date:

Astronomy

Aug. 27, 2013 Rise Set
Actual Time 7:01 AM EDT 8:24 PM EDT
Civil Twilight 6:32 AM EDT 8:54 PM EDT
Nautical Twilight 5:56 AM EDT 9:29 PM EDT
Astronomical Twilight 5:18 AM EDT 10:07 PM EDT
Moon No Moon Rise 2:09 PM EDT (8/27)
Length of Visible Light 14h 22m
Length of Day
13h 23m
Waning Gibbous, 57% of the Moon is Illuminated
Aug 27
Waning Gibbous
Aug 28
Last Quarter
Sep 5
New
Sep 12
First Quarter
Sep 19
Full

Hourly Weather History & Observations

Time (EDT) Temp. Heat Index Dew Point Humidity Pressure Visibility Wind Dir Wind Speed Gust Speed Precip Events Conditions
12:53 AM 78.1 °F - 69.1 °F 74% 29.98 in 9.0 mi WSW 10.4 mph - N/A   Clear
1:53 AM 77.0 °F - 70.0 °F 79% 29.96 in 9.0 mi WSW 11.5 mph - N/A   Partly Cloudy
2:53 AM 78.1 °F - 70.0 °F 76% 29.96 in 9.0 mi WSW 10.4 mph - N/A   Overcast
3:53 AM 77.0 °F - 70.0 °F 79% 29.94 in 8.0 mi WSW 8.1 mph - N/A   Partly Cloudy
4:53 AM 78.1 °F - 70.0 °F 76% 29.94 in 7.0 mi West 8.1 mph - N/A   Overcast
5:10 AM 77.0 °F - 71.6 °F 83% 29.96 in 3.0 mi WNW 9.2 mph - 0.03 in Rain , Thunderstorm Heavy Rain
5:25 AM 77.0 °F - 71.6 °F 83% 29.97 in 7.0 mi WNW 5.8 mph - 0.03 in Rain Light Rain
5:53 AM 75.9 °F - 72.0 °F 87% 29.99 in 6.0 mi NW 9.2 mph - 0.04 in Rain Light Rain
6:26 AM 75.2 °F - 71.6 °F 89% 30.01 in 2.5 mi North 13.8 mph 20.7 mph 0.02 in Rain , Thunderstorm Heavy Thunderstorms and Rain
6:40 AM 75.2 °F - 71.6 °F 89% 30.00 in 5.0 mi NNE 9.2 mph - 0.11 in Rain , Thunderstorm Light Thunderstorms and Rain
6:53 AM 73.9 °F - 71.1 °F 91% 29.98 in 5.0 mi Calm Calm - 0.13 in Rain , Thunderstorm Light Thunderstorms and Rain
7:05 AM 73.4 °F - 69.8 °F 88% 30.01 in 6.0 mi WNW 3.5 mph - 0.00 in Rain Light Rain
7:53 AM 73.0 °F - 70.0 °F 90% 29.98 in 6.0 mi SSE 3.5 mph - 0.02 in Rain Light Rain
8:53 AM 73.9 °F - 71.1 °F 91% 29.97 in 6.0 mi SSE 5.8 mph - 0.00 in   Overcast
9:53 AM 75.9 °F - 72.0 °F 87% 29.95 in 4.0 mi South 9.2 mph - N/A   Overcast
10:53 AM 79.0 °F - 73.0 °F 82% 29.95 in 7.0 mi SSW 8.1 mph - N/A   Overcast
11:53 AM 82.0 °F 87.4 °F 73.0 °F 74% 29.93 in 7.0 mi SSW 12.7 mph - N/A   Overcast
12:53 PM 84.0 °F 90.2 °F 73.0 °F 69% 29.92 in 9.0 mi SW 12.7 mph - N/A   Overcast
1:53 PM 84.0 °F 90.2 °F 73.0 °F 69% 29.91 in 8.0 mi SW 9.2 mph - 0.00 in   Mostly Cloudy
2:53 PM 88.0 °F 96.5 °F 73.9 °F 63% 29.89 in 10.0 mi SW 12.7 mph - N/A   Mostly Cloudy
3:53 PM 90.0 °F 97.9 °F 73.0 °F 57% 29.87 in 10.0 mi SW 13.8 mph - N/A   Mostly Cloudy
4:53 PM 91.9 °F 97.4 °F 70.0 °F 48% 29.85 in 10.0 mi WSW 17.3 mph - N/A   Mostly Cloudy
5:53 PM 89.1 °F 92.9 °F 68.0 °F 50% 29.84 in 10.0 mi SW 10.4 mph - N/A   Mostly Cloudy
6:53 PM 88.0 °F 91.4 °F 68.0 °F 51% 29.83 in 10.0 mi SSW 11.5 mph - N/A   Mostly Cloudy
7:53 PM 87.1 °F 89.9 °F 66.9 °F 51% 29.82 in 10.0 mi SSW 12.7 mph 21.9 mph N/A   Mostly Cloudy
8:53 PM 86.0 °F 88.8 °F 66.9 °F 53% 29.81 in 10.0 mi SW 16.1 mph - N/A   Mostly Cloudy
9:53 PM 84.9 °F 88.8 °F 69.1 °F 59% 29.81 in 10.0 mi WSW 17.3 mph - 0.00 in   Mostly Cloudy
10:53 PM 84.0 °F 89.0 °F 71.1 °F 65% 29.81 in 10.0 mi WSW 15.0 mph 21.9 mph 0.00 in   Overcast
11:28 PM 82.4 °F 87.2 °F 71.6 °F 70% 29.82 in 5.0 mi West 16.1 mph - 0.02 in Rain , Thunderstorm Light Thunderstorms and Rain
11:53 PM 81.0 °F 85.2 °F 72.0 °F 74% 29.83 in 10.0 mi North 10.4 mph - 0.02 in Thunderstorm Thunderstorm